Regional Weather Roundup
Issued by NWS

Home | Current Version | Previous Version | Graphics & Text | Print | Product List | Glossary On
Versions: 1 2 3 4 5 6 7 8 9 10 11 12 13 14 15 16 17 18 19 20 21 22 23 24 25 26 27 28 29 30 31 32 33 34 35 36 37 38 39 40 41 42 43 44 45 46 47 48 49 50
000
ASUS43 KTOP 031859
RWRKS

WEATHER ROUNDUP FOR KANSAS
NATIONAL WEATHER SERVICE GOODLAND KS
200 PM CDT WED JUN 03 2015

NOTE:  "FAIR" INDICATES FEW OR NO CLOUDS BELOW 12,000 FEET WITH NO
SIGNIFICANT WEATHER AND/OR OBSTRUCTIONS TO VISIBILITY.

KSZ001>006-013>018-027>032-041>047-032000-
NORTHWEST KANSAS

CITY           SKY/WX    TMP DP  RH WIND       PRES   REMARKS
GOODLAND       PTSUNNY   74  62  66 NE15      29.96F
HAYS           CLOUDY    75  63  64 E12       29.89S
HILL CITY      MOSUNNY   79  63  57 SE14G24   29.89S
RUSSELL        CLOUDY    74  65  73 E9        29.88R
$$

KSZ061>065-074>080-084>089-032000-
SOUTHWEST KANSAS

CITY           SKY/WX    TMP DP  RH WIND       PRES   REMARKS
DODGE CITY     SUNNY     87  64  46 S15       29.83F
ELKHART          N/A     83  61  47 NW10        N/A
GARDEN CITY    SUNNY     87  60  40 SE15G21   29.82F
GREAT BEND     CLOUDY    81  66  61 SE9       29.84S
LIBERAL        SUNNY     88  61  40 S10       29.83F
$$

KSZ066>073-081>083-090>101-032000-
SOUTHEAST KANSAS

CITY           SKY/WX    TMP DP  RH WIND       PRES   REMARKS
CHANUTE        PTSUNNY   82  69  64 S16       29.93F
COFFEYVILLE    PTSUNNY   83  69  62 SE13      29.94S
HUTCHINSON     MOSUNNY   87  67  51 S25       29.83F
MEDICINE LODGE   N/A     90  65  43 S17G24    29.82S
NEWTON         MOSUNNY   84  64  51 S16G23    29.88F
PARSONS        PTSUNNY   83  69  62 S9        29.96F
WICHITA INTL   PTSUNNY   86  67  52 S22G29    29.85F
WICHITA JABRA  MOSUNNY   85  68  56 S17G26    29.86F
WINFIELD       PTSUNNY   84  69  60 SE17      29.90F
$$

KSZ007>012-019>026-033>040-048>060-102>105-032000-
NORTHEAST KANSAS

CITY           SKY/WX    TMP DP  RH WIND       PRES   REMARKS
CONCORDIA      PTSUNNY   79  66  64 S22G28    29.84F
EMPORIA        PTSUNNY   82  68  62 SE15G25   29.88F
LAWRENCE       CLOUDY    68  63  84 SE10      29.93F
MANHATTAN      PTSUNNY   82  69  64 SE14      29.87F
OLATHE IND     CLOUDY    65  62  90 SE15      29.95F
OLATHE EXE     CLOUDY    64  62  93 S8        29.96S
SALINA         PTSUNNY   83  67  58 SE14      29.85F
TOPEKA BILLARD CLOUDY    73  68  84 E12       29.92F
TOPEKA FORBES  CLOUDY    76  68  76 SE14G24   29.90F
$$



USA.gov is the U.S. government's official web portal to all federal, state and local government web resources and services.